Вернуться в каталог

COSMOS 1191 DEB

АктивенHEO
NORAD 12817·DEBRIS·🇷🇺 Russia

Запущен Jul 2, 1980 с Plesetsk Cosmodrome

Loading…

Ближайшие Пролёты (ближайшие 24 часа)

TLE

УстаревающийSource: Space-Track

Эпоха: Sep 1, 2026, 14:55 UTC

1 12817U 80057E   26244.62210607 -.00000662  00000-0  00000-0 0  9996
2 12817  63.8779 356.5709 7185233  33.3791 355.8572  1.99851641250737

Отслеживайте COSMOS 1191 DEB в реальном времени с AllMySat

Download on the App Store